TimeCDT,TemperatureF,Dew PointF,Humidity,Sea Level PressureIn,VisibilityMPH,Wind Direction,Wind SpeedMPH,Gust SpeedMPH,PrecipitationIn,Events,Conditions,WindDirDegrees,DateUTC
12:15 AM,73.4,69.8,88,29.93,10.0,Calm,Calm,-,N/A,,Clear,0,2013-09-08 05:15:00
12:35 AM,75.2,69.8,83,29.93,10.0,Calm,Calm,-,N/A,,Clear,0,2013-09-08 05:35:00
12:55 AM,73.4,69.8,88,29.94,10.0,Calm,Calm,-,N/A,,Clear,0,2013-09-08 05:55:00
1:15 AM,73.4,69.8,88,29.94,10.0,NNE,3.5,-,N/A,,Clear,20,2013-09-08 06:15:00
1:35 AM,73.4,68.0,83,29.94,10.0,North,3.5,-,N/A,,Clear,10,2013-09-08 06:35:00
1:55 AM,71.6,68.0,88,29.93,10.0,NNE,3.5,-,N/A,,Clear,30,2013-09-08 06:55:00
2:15 AM,71.6,68.0,88,29.93,9.0,Calm,Calm,-,N/A,,Clear,0,2013-09-08 07:15:00
2:35 AM,71.6,68.0,88,29.93,10.0,North,4.6,-,N/A,,Clear,10,2013-09-08 07:35:00
2:55 AM,71.6,69.8,94,29.93,10.0,North,3.5,-,N/A,,Clear,10,2013-09-08 07:55:00
3:15 AM,71.6,69.8,94,29.93,9.0,NNE,6.9,-,N/A,,Clear,20,2013-09-08 08:15:00
3:35 AM,71.6,69.8,94,29.93,8.0,NNE,6.9,-,N/A,,Clear,20,2013-09-08 08:35:00
3:55 AM,71.6,69.8,94,29.92,8.0,NNE,8.1,-,N/A,,Clear,20,2013-09-08 08:55:00
4:15 AM,71.6,69.8,94,29.92,6.0,NNE,6.9,-,N/A,,Clear,30,2013-09-08 09:15:00
4:35 AM,69.8,68.0,94,29.92,5.0,NE,4.6,-,N/A,,Clear,50,2013-09-08 09:35:00
4:55 AM,69.8,68.0,94,29.92,5.0,NNE,5.8,-,N/A,,Clear,30,2013-09-08 09:55:00
5:15 AM,71.6,69.8,94,29.92,6.0,NNE,6.9,-,N/A,,Clear,30,2013-09-08 10:15:00
5:35 AM,71.6,69.8,94,29.91,7.0,NNE,6.9,-,N/A,,Clear,30,2013-09-08 10:35:00
5:55 AM,71.6,69.8,94,29.91,6.0,NE,8.1,-,N/A,,Clear,40,2013-09-08 10:55:00
6:15 AM,71.6,69.8,94,29.92,6.0,NE,6.9,-,N/A,,Clear,40,2013-09-08 11:15:00
6:35 AM,69.8,69.8,100,29.91,5.0,NE,6.9,-,N/A,,Clear,40,2013-09-08 11:35:00
6:55 AM,69.8,69.8,100,29.91,3.0,NE,6.9,-,N/A,,Clear,40,2013-09-08 11:55:00
7:15 AM,69.8,69.8,100,29.92,3.0,NE,8.1,-,N/A,,Clear,50,2013-09-08 12:15:00
7:35 AM,71.6,69.8,94,29.92,3.0,NE,9.2,-,N/A,,Clear,40,2013-09-08 12:35:00
7:55 AM,71.6,69.8,94,29.92,4.0,NE,8.1,-,N/A,,Clear,50,2013-09-08 12:55:00
8:15 AM,73.4,69.8,88,29.93,6.0,ENE,8.1,-,N/A,,Clear,60,2013-09-08 13:15:00
8:35 AM,73.4,71.6,94,29.93,7.0,ENE,9.2,-,N/A,,Clear,70,2013-09-08 13:35:00
8:55 AM,75.2,69.8,83,29.93,8.0,ENE,11.5,-,N/A,,Clear,60,2013-09-08 13:55:00
9:15 AM,77.0,71.6,83,29.93,9.0,ENE,9.2,-,N/A,,Clear,70,2013-09-08 14:15:00
9:35 AM,77.0,69.8,78,29.93,9.0,ENE,10.4,-,N/A,,Clear,70,2013-09-08 14:35:00
9:55 AM,78.8,69.8,74,29.93,10.0,East,10.4,-,N/A,,Clear,90,2013-09-08 14:55:00
10:15 AM,80.6,71.6,74,29.93,9.0,ENE,9.2,-,N/A,,Clear,60,2013-09-08 15:15:00
10:35 AM,82.4,71.6,70,29.93,10.0,East,8.1,-,N/A,,Clear,90,2013-09-08 15:35:00
10:55 AM,84.2,71.6,66,29.94,10.0,East,9.2,-,N/A,,Clear,100,2013-09-08 15:55:00
11:15 AM,84.2,71.6,66,29.94,10.0,ENE,9.2,-,N/A,,Clear,70,2013-09-08 16:15:00
11:35 AM,84.2,71.6,66,29.93,10.0,ENE,5.8,11.5,N/A,,Clear,70,2013-09-08 16:35:00
11:55 AM,84.2,71.6,66,29.93,10.0,Variable,5.8,-,N/A,,Clear,0,2013-09-08 16:55:00
12:15 PM,86.0,71.6,62,29.92,10.0,Variable,3.5,-,N/A,,Clear,0,2013-09-08 17:15:00
12:35 PM,87.8,71.6,58,29.92,10.0,SE,6.9,-,N/A,,Clear,130,2013-09-08 17:35:00
12:55 PM,87.8,69.8,55,29.91,10.0,ESE,8.1,-,N/A,,Clear,120,2013-09-08 17:55:00
1:15 PM,89.6,71.6,55,29.90,10.0,Variable,6.9,-,N/A,,Clear,0,2013-09-08 18:15:00
1:35 PM,89.6,68.0,49,29.90,10.0,SE,4.6,-,N/A,,Clear,130,2013-09-08 18:35:00
1:55 PM,91.4,69.8,49,29.89,10.0,ENE,8.1,-,N/A,,Clear,60,2013-09-08 18:55:00
2:15 PM,91.4,69.8,49,29.88,10.0,Variable,6.9,-,N/A,,Clear,0,2013-09-08 19:15:00
2:35 PM,89.6,69.8,52,29.88,10.0,East,8.1,-,N/A,,Clear,100,2013-09-08 19:35:00
2:55 PM,91.4,69.8,49,29.87,10.0,ENE,8.1,-,N/A,,Clear,70,2013-09-08 19:55:00
3:15 PM,89.6,69.8,52,29.87,10.0,ENE,4.6,-,N/A,,Clear,70,2013-09-08 20:15:00
3:35 PM,89.6,71.6,55,29.87,9.0,East,5.8,-,N/A,,Clear,100,2013-09-08 20:35:00
3:55 PM,89.6,71.6,55,29.87,10.0,ENE,8.1,-,N/A,,Clear,70,2013-09-08 20:55:00
4:15 PM,91.4,71.6,52,29.87,10.0,East,8.1,-,N/A,,Clear,90,2013-09-08 21:15:00
4:35 PM,93.2,71.6,49,29.86,10.0,East,6.9,-,N/A,,Clear,80,2013-09-08 21:35:00
4:55 PM,93.2,71.6,49,29.85,10.0,ENE,9.2,-,N/A,,Clear,70,2013-09-08 21:55:00
5:15 PM,91.4,71.6,52,29.85,10.0,ENE,10.4,-,N/A,,Clear,70,2013-09-08 22:15:00
5:35 PM,89.6,71.6,55,29.85,10.0,ENE,11.5,-,N/A,,Clear,70,2013-09-08 22:35:00
5:55 PM,89.6,71.6,55,29.84,10.0,East,10.4,-,N/A,,Clear,90,2013-09-08 22:55:00
6:15 PM,89.6,71.6,55,29.84,9.0,East,10.4,-,N/A,,Clear,100,2013-09-08 23:15:00
6:35 PM,87.8,73.4,62,29.84,10.0,East,8.1,-,N/A,,Clear,100,2013-09-08 23:35:00
6:55 PM,87.8,73.4,62,29.84,10.0,East,8.1,-,N/A,,Clear,90,2013-09-08 23:55:00
7:15 PM,84.2,73.4,70,29.84,9.0,East,5.8,-,N/A,,Clear,90,2013-09-09 00:15:00
7:35 PM,84.2,71.6,66,29.84,9.0,East,4.6,-,N/A,,Clear,90,2013-09-09 00:35:00
7:55 PM,80.6,71.6,74,29.84,4.0,East,6.9,-,N/A,,Haze,90,2013-09-09 00:55:00
8:15 PM,80.6,71.6,74,29.84,10.0,East,6.9,-,N/A,,Clear,90,2013-09-09 01:15:00
8:35 PM,78.8,71.6,78,29.84,10.0,Calm,Calm,-,N/A,,Clear,0,2013-09-09 01:35:00
8:55 PM,78.8,71.6,78,29.84,10.0,ESE,4.6,-,N/A,,Clear,110,2013-09-09 01:55:00
9:15 PM,78.8,71.6,78,29.84,10.0,East,4.6,-,N/A,,Clear,100,2013-09-09 02:15:00
9:35 PM,77.0,71.6,83,29.85,9.0,East,3.5,-,N/A,,Clear,90,2013-09-09 02:35:00
9:55 PM,77.0,71.6,83,29.84,10.0,East,6.9,-,N/A,,Clear,90,2013-09-09 02:55:00
10:15 PM,75.2,71.6,89,29.84,10.0,East,6.9,-,N/A,,Clear,90,2013-09-09 03:15:00
10:35 PM,75.2,71.6,89,29.84,10.0,East,5.8,-,N/A,,Clear,90,2013-09-09 03:35:00
10:55 PM,75.2,71.6,89,29.84,10.0,ESE,5.8,-,N/A,,Clear,120,2013-09-09 03:55:00
11:15 PM,75.2,71.6,89,29.85,10.0,SE,5.8,-,N/A,,Clear,130,2013-09-09 04:15:00
11:35 PM,73.4,71.6,94,29.85,10.0,SE,5.8,-,N/A,,Clear,140,2013-09-09 04:35:00
11:55 PM,73.4,71.6,94,29.84,10.0,SE,4.6,-,N/A,,Clear,140,2013-09-09 04:55:00